Flag for Austria Weather past 2 weeks in Güssing, Burgenland, Austria

Now
62 °F

Light rain. Overcast.


Feels Like: 62 °F
Forecast: 54 / 72 °F
Wind: 3 mph from East

Location: Murska Sobota

Current Time: Jul 30, 2015 at 8:33:44 AM

Latest Report: Jul 30, 2015 at 8:00 AM


Visibility: 6 mi

Pressure: 29.98 "Hg

Humidity: 93%

Dew point: 60 °F

Location of GüssingLocation

Historic Weather in Güssing — Graph

°F

Güssing temperature yesterday

Maximum temperature yesterday: 67 °F (at 4:00 PM)
Minimum temperature yesterday: 60 °F (at 10:00 AM)
Average temperature yesterday: 64 °F

Past Weeks' High & Low Weather Summary

 TemperatureHumidityPressure
High95 °F (Jul 22, 4:00 PM)98% (Jul 30, 6:00 AM)30.11 "Hg (Jul 30, 6:00 AM)
Low59 °F (Jul 27, 12:00 AM)36% (Jul 22, 6:00 PM)29.72 "Hg (Jul 25, 3:00 PM)
Average74 °F75%29.92 "Hg
* Reported Jul 15 7:00 AM — Jul 30 7:00 AM, Güssing, Weather by CustomWeather, © 2015

Note: Actual official high and low records may vary slightly from our data, if they occured in-between our weather recording intervals... More about our weather records

Advertising

Güssing weather history for previous 24 hours

 ConditionsComfort  
Time TempWeatherWind HumidityBarometerVisibility
7:00 AM
Thu, Jul 30
61 °FLight rain. Overcast.1 mph98%29.96 "Hg4 mi
6:00 AM62 °FCool.No wind98%29.94 "HgN/A
5:00 AM62 °FCool.1 mph97%29.93 "HgN/A
4:00 AM62 °FCool.1 mph97%29.93 "HgN/A
3:00 AM62 °FCool.1 mph95%29.92 "HgN/A
2:00 AM62 °FCool.1 mph94%29.90 "HgN/A
1:00 AM63 °FMild.1 mph90%29.90 "HgN/A
12:00 AM63 °FMild.3 mph89%29.90 "HgN/A
9:00 PM
Wed, Jul 29
64 °FMild.1 mph88%29.87 "HgN/A
8:00 PM65 °FPartly sunny.1 mph84%29.86 "Hg12 mi
7:00 PM66 °FMild.2 mph78%29.85 "HgN/A
6:00 PM67 °FMild.3 mph76%29.85 "HgN/A
5:00 PM66 °FMild.2 mph76%29.86 "HgN/A
4:00 PM67 °FMild.1 mph72%29.88 "HgN/A
3:00 PM66 °FPartly sunny.1 mph75%29.90 "Hg12 mi
2:00 PM62 °FOvercast.1 mph83%29.92 "Hg12 mi
1:00 PM61 °FCool.1 mph88%29.93 "HgN/A
12:00 PM60 °FCool.3 mph89%29.93 "HgN/A
11:00 AM60 °FCool.3 mph90%29.93 "HgN/A
10:00 AM60 °FCool.5 mph91%29.93 "HgN/A
9:00 AM61 °FCool.3 mph84%29.92 "HgN/A
8:00 AM63 °FLight rain. Overcast.5 mph87%29.88 "Hg2 mi
Weather by CustomWeather, © 2015

See weather overviewHow to use our weather pages